Flag for U.S.A. Weather past 2 weeks in Baltimore, Maryland, U.S.A.

Now
17 °F

Clear.


Feels Like: 17 °F
Forecast: 12 / 31 °F
Wind: No wind

Location: Baltimore-Washington International Airport

Current Time: Mar 1, 2015 at 12:01:09 AM

Latest Report: Feb 28, 2015 at 10:54 PM


Visibility: 10 mi

Pressure: 30.75 "Hg

Humidity: 62%

Dew point: 6 °F

Location of BaltimoreLocation

Historic Weather in Baltimore — Graph

°F

Baltimore temperature yesterday

Maximum temperature yesterday: 29 °F (at 2:54 PM)
Minimum temperature yesterday: 15 °F (at 5:54 AM)
Average temperature yesterday: 21 °F

Past Weeks' High & Low Weather Summary

 TemperatureHumidityPressure
High46 °F (Feb 22, 2:54 PM)96% (Feb 21, 9:54 PM)30.86 "Hg (Feb 21, 9:54 PM)
Low1 °F (Feb 20, 6:54 AM)26% (Feb 28, 2:54 PM)29.48 "Hg (Feb 14, 6:54 PM)
Average21 °F58%30.16 "Hg
* Reported Feb 13 10:54 PM — Feb 28 10:54 PM, Baltimore, Weather by CustomWeather, © 2015

Note: Actual official high and low records may vary slightly from our data, if they occured in-between our weather recording intervals... More about our weather records

Advertising

Baltimore weather history for previous 24 hours

 ConditionsComfort  
Time TempWeatherWind HumidityBarometerVisibility
10:54 PM
Sat, Feb 28
17 °FClear.No wind62%30.75 "Hg10 mi
9:54 PM18 °FClear.No wind65%30.77 "Hg10 mi
8:54 PM20 °FClear.No wind55%30.78 "Hg10 mi
7:54 PM21 °FPassing clouds.No wind50%30.78 "Hg10 mi
6:54 PM24 °FPassing clouds.3 mph42%30.76 "Hg10 mi
5:54 PM26 °FScattered clouds.5 mph38%30.76 "Hg10 mi
4:54 PM27 °FScattered clouds.6 mph39%30.76 "Hg10 mi
3:54 PM29 °FScattered clouds.5 mph27%30.75 "Hg10 mi
2:54 PM29 °FPartly sunny.No wind26%30.76 "Hg10 mi
1:54 PM28 °FPartly sunny.No wind27%30.78 "Hg10 mi
12:54 PM27 °FPartly sunny.3 mph32%30.82 "Hg10 mi
11:54 AM25 °FPartly sunny.3 mph30%30.84 "Hg10 mi
10:54 AM23 °FPartly sunny.No wind32%30.86 "Hg10 mi
9:54 AM20 °FPartly sunny.5 mph40%30.86 "Hg10 mi
8:54 AM19 °FPartly sunny.5 mph41%30.85 "Hg10 mi
7:54 AM17 °FPartly sunny.7 mph42%30.83 "Hg10 mi
6:54 AM15 °FScattered clouds.5 mph44%30.80 "Hg10 mi
5:54 AM15 °FPassing clouds.No wind46%30.79 "Hg10 mi
4:54 AM16 °FPassing clouds.No wind45%30.75 "Hg10 mi
3:54 AM16 °FPassing clouds.5 mph45%30.73 "Hg10 mi
2:54 AM17 °FPassing clouds.5 mph45%30.70 "Hg10 mi
1:54 AM17 °FPassing clouds.5 mph47%30.70 "Hg10 mi
12:54 AM19 °FPassing clouds.3 mph43%30.68 "Hg10 mi
Weather by CustomWeather, © 2015

See weather overviewHow to use our weather pages